Regional Weather Roundup
Issued by NWS

Home | Current Version | Previous Version | Text Only | Print | Product List | Glossary On
Versions: 1 2 3 4 5 6 7 8 9 10 11 12 13 14 15 16 17 18 19 20 21 22 23 24 25 26 27 28 29 30 31 32 33 34 35 36 37 38 39 40 41 42 43 44 45 46 47 48 49 50
000
ASUS42 KFFC 290403
RWRGA
WEATHER ROUNDUP FOR GEORGIA
NATIONAL WEATHER SERVICE PEACHTREE CITY GA
1200 AM EDT SUN MAR 29 2015

NOTE: "FAIR" INDICATES FEW OR NO CLOUDS BELOW 12,000 FEET WITH NO
SIGNIFICANT WEATHER AND/OR OBSTRUCTIONS TO VISIBILITY.

* = USE WITH CAUTION. THE STATIONS MARKED WITH AN ASTERISK MAY NOT
REPORT WEATHER SUCH AS PRECIPITATION, FOG, OR THUNDER AND ARE NOT
QUALITY CONTROLLED BY NWS.

THE REMARK "TC" DENOTES TEMPERATURE READING IN DEGREES CELSIUS.

GAZ001>058-290500-
NORTH GEORGIA

CITY           SKY/WX    TMP DP  RH WIND       PRES   REMARKS
ATLANTA        CLEAR     39  19  44 W7        30.26R WCI  34
ATHENS         CLEAR     39  17  41 CALM      30.25R
CHAMBLEE       CLEAR     39  15  37 NW8       30.26R WCI  33
PEACHTREE CITY CLEAR     40  22  48 NW6       30.28R
ROME           CLEAR     39  15  37 N7        30.29R WCI  34
WEST ATLANTA   CLEAR     39  18  42 CALM      30.27R
GAINESVILLE    CLEAR     40  13  33 N5        30.25R
CARTERSVILLE   CLEAR     32  19  58 CALM      30.29R


CITY           SKY/WX    TMP DP  RH WIND       PRES   REMARKS
DALTON*        CLEAR     36  18  48 CALM      30.29R
MARIETTA       CLEAR     35  19  51 W3        30.26R
$$

GAZ059>098-102>109-290500-
CENTRAL GEORGIA

CITY           SKY/WX    TMP DP  RH WIND       PRES   REMARKS
AUGUSTA-BUSH   CLEAR     45  20  36 N12       30.24R
AUGUSTA-DANIEL CLEAR     46  16  30 N9        30.25R
COLUMBUS       CLOUDY    48  19  31 N6        30.28R
MACON          CLEAR     38  30  73 W5        30.26R WCI  34
ROBINS AFB     CLEAR     40  27  59 N3        30.26R


CITY           SKY/WX    TMP DP  RH WIND       PRES   REMARKS
LAGRANGE*      CLOUDY    46  23  40 CALM      30.28S
SYLVANIA*      CLEAR     38  34  87 CALM      30.24R
MILLEDGEVILLE* CLEAR     37  30  75 CALM      30.26R
$$

GAZ099>101-110>166-290500-
SOUTH GEORGIA

CITY           SKY/WX    TMP DP  RH WIND       PRES   REMARKS
SAVANNAH       CLEAR     43  34  70 CALM      30.23S
VALDOSTA       CLEAR     43  39  86 CALM      30.25S
ALMA           MOCLDY    45  39  79 CALM      30.24R
ST SIMONS      PTCLDY    46  36  68 CALM      30.24R
FT STEWART     CLEAR     40  34  77 CALM      30.21R
ALBANY         PTCLDY    49  28  44 NW8       30.28R
HUNTER AFB     CLEAR     42  32  66 W3        30.21R
MOODY AFB      PTCLDY    47  35  63 CALM      30.24R
BRUNSWICK      PTCLDY    43  37  81 CALM      30.24R


CITY           SKY/WX    TMP DP  RH WIND       PRES   REMARKS
BAINBRIDGE*    PTCLDY    54  36  50 NW8       30.27S
MOULTRIE*      PTCLDY    48  32  53 CALM      30.26R
VIDALIA*       PTCLDY    45  32  61 N5        30.24R
WAYCROSS*      CLOUDY    50  46  87 CALM      30.24R
DOUGLAS*       CLOUDY    50  37  62 CALM      30.25R
$$



USA.gov is the U.S. government's official web portal to all federal, state and local government web resources and services.